User: anonymous   Login
Location: Unspecified
(0.0000°N, 0.0000°E)
Time: 00:40:31
(UTC+01:00)
Language:

AO-40 - Orbit

View from above orbital plane
View from above orbital plane
View from above satellite
View from above satellite

Ground track
Ground track

The orbit data is extracted from the following two-line orbital elements,

1 26609U 00072B   14354.13826368  .00000005  00000-0  00000+0 0   957
2 26609 008.7946 016.9866 7941345 181.8159 170.1701 01.25583983 64901
Epoch (UTC): 20 December 2014 03:19:05
Eccentricity: 0.7941345
inclination: 8.7946°
perigee height: 1092 km
apogee height: 58729 km
right ascension of ascending node: 16.9866°
argument of perigee: 181.8159°
revolutions per day: 1.25583983
mean anomaly at epoch: 170.1701°
orbit number at epoch: 6490

The dashed part of the orbit path shows where the satellite is in the earth's shadow,  

DLR